Overview Statistics Trail Chart Weather Telemetry Raw packets
 

This is the latest recevied weather packets stored in our database for station/object R2AKT-13. If no packets are shown the sender has not sent any weather packets the latest 10 day(s).

<< 44 45 46 47 48 49 50 >>
Time Temp. Humidity Pressure Rain* Wind** Luminosity Snow
1788109641 15.56° C 82% 994.6 hPa - 3.58 m/s, 181° - -
1788109046 15.56° C 82% 994.6 hPa - 2.24 m/s, 193° - -
1788108486 15.56° C 82% 994.7 hPa - 1.34 m/s, 188° - -
1788107968 15.56° C 81% 994.6 hPa - 1.79 m/s, 193° - -
1788107446 15.56° C 80% 994.6 hPa - 1.79 m/s, 189° - -
1788106916 16.11° C 79% 994.6 hPa - 1.79 m/s, 179° - -
1788106336 16.11° C 78% 994.6 hPa - 1.79 m/s, 199° - -
1788105800 16.11° C 76% 994.6 hPa - 1.79 m/s, 192° - -
1788105296 16.11° C 76% 994.6 hPa - 1.79 m/s, 187° - -
1788104776 16.11° C 74% 994.7 hPa - 0.89 m/s, 152° - -
1788104241 16.67° C 72% 994.8 hPa - 2.24 m/s, 182° - -
1788103683 17.22° C 70% 994.5 hPa - 3.13 m/s, 197° - -
1788103179 17.78° C 67% 994.8 hPa - 2.68 m/s, 183° - -
1788102581 17.78° C 66% 994.8 hPa - 1.34 m/s, 177° - -
1788102021 17.78° C 65% 994.8 hPa - 3.13 m/s, 176° - -
1788101491 18.33° C 64% 994.8 hPa - 3.13 m/s, 202° - -
1788100951 18.33° C 62% 994.9 hPa - 2.68 m/s, 203° - -
1788100426 18.33° C 63% 995 hPa - 1.34 m/s, 203° - -
1788099941 18.89° C 62% 995 hPa - 0.89 m/s, 198° - -
1788099391 18.89° C 58% 994.9 hPa - 1.79 m/s, 213° - -
1788098891 19.44° C 55% 994.9 hPa - 3.58 m/s, 186° - -
1788098311 20° C 54% 995 hPa - 2.24 m/s, 184° - -
1788097791 20° C 54% 995.1 hPa - 2.24 m/s, 189° - -
1788097266 20° C 53% 995.1 hPa - 3.13 m/s, 172° - -
1788096686 20° C 52% 995.1 hPa - 2.24 m/s, 187° - -

* Rain since midnight (hover to see other rain measurements)
** Current wind speed in m/s (hover to see current wind gust speed)